Flag for Switzerland Weather past 2 weeks in Muttenz, Basel-Land, Switzerland

Now
66 °F

Clear.


Feels Like: 66 °F
Forecast: 61 / 87 °F
Wind: 3 mph from North

Location: Bale-Mulhouse

Current Time: Aug 30, 2015 at 6:15:00 AM

Latest Report: Aug 30, 2015 at 5:30 AM


Visibility: 10 mi

Pressure: 30.12 "Hg

Humidity: 88%

Dew point: 63 °F

Location of MuttenzLocation

Historic Weather in Muttenz — Graph

°F

Muttenz temperature yesterday

Maximum temperature yesterday: 91 °F (at 5:30 PM)
Minimum temperature yesterday: 63 °F (at 3:00 AM)
Average temperature yesterday: 75 °F

Past Weeks' High & Low Weather Summary

 TemperatureHumidityPressure
High91 °F (Aug 29, 5:30 PM)100% (Aug 16, 6:00 AM)30.24 "Hg (Aug 16, 6:00 AM)
Low48 °F (Aug 20, 6:30 AM)26% (Aug 27, 3:00 PM)29.71 "Hg (Aug 24, 5:00 AM)
Average66 °F74%30.02 "Hg
* Reported Aug 15 4:00 AM — Aug 30 4:30 AM, Muttenz, Weather by CustomWeather, © 2015

Note: Actual official high and low records may vary slightly from our data, if they occured in-between our weather recording intervals... More about our weather records

Advertising

Muttenz weather history for previous 24 hours

 ConditionsComfort  
Time TempWeatherWind HumidityBarometerVisibility
4:30 AM
Sun, Aug 30
66 °FClear.5 mph94%30.12 "Hg10 mi
4:00 AM66 °FClear.3 mph88%30.12 "Hg10 mi
3:30 AM66 °FClear.2 mph94%30.12 "Hg10 mi
3:00 AM66 °FClear.No wind94%30.09 "Hg10 mi
2:30 AM66 °FClear.1 mph94%30.09 "Hg10 mi
2:00 AM68 °FClear.2 mph88%30.12 "Hg10 mi
1:30 AM68 °FClear.No wind88%30.12 "Hg10 mi
1:00 AM68 °FClear.2 mph88%30.12 "Hg10 mi
12:30 AM70 °FClear.2 mph83%30.09 "Hg10 mi
12:00 AM70 °FClear.2 mph83%30.12 "Hg10 mi
11:30 PM
Sat, Aug 29
70 °FClear.2 mph88%30.09 "Hg10 mi
11:00 PM70 °FClear.3 mph83%30.09 "Hg10 mi
10:30 PM70 °FPassing clouds.3 mph83%30.09 "HgN/A
10:00 PM73 °FClear.3 mph78%30.09 "Hg10 mi
9:30 PM75 °FClear.3 mph74%30.09 "Hg10 mi
9:00 PM77 °FPassing clouds.3 mph69%30.09 "HgN/A
8:30 PM79 °FSunny.5 mph65%30.07 "Hg10 mi
8:00 PM82 °FSunny.3 mph58%30.07 "Hg10 mi
7:30 PM86 °FPassing clouds.5 mph52%30.07 "HgN/A
7:00 PM88 °FPassing clouds.5 mph46%30.07 "HgN/A
6:30 PM90 °FPassing clouds.5 mph41%30.07 "HgN/A
6:00 PM90 °FPassing clouds.5 mph38%30.07 "HgN/A
5:30 PM91 °FPassing clouds.5 mph36%30.09 "HgN/A
5:00 PM90 °FPassing clouds.5 mph41%30.09 "HgN/A
4:30 PM90 °FSunny.3 mph41%30.09 "Hg10 mi
4:00 PM90 °FSunny.2 mph41%30.09 "Hg10 mi
3:30 PM88 °FPassing clouds.3 mph43%30.12 "HgN/A
3:00 PM88 °FSunny.2 mph43%30.12 "Hg10 mi
2:30 PM88 °FSunny.3 mph46%30.12 "Hg10 mi
2:00 PM86 °FPassing clouds.3 mph49%30.15 "HgN/A
1:30 PM84 °FSunny.3 mph51%30.15 "Hg10 mi
1:00 PM82 °FSunny.2 mph58%30.18 "Hg10 mi
12:00 PM81 °FSunny.3 mph62%30.18 "Hg10 mi
11:30 AM77 °FSunny.1 mph69%30.21 "Hg10 mi
11:00 AM75 °FPassing clouds.3 mph69%30.21 "HgN/A
10:00 AM72 °FScattered clouds.2 mph83%30.21 "HgN/A
9:30 AM70 °FPassing clouds.2 mph83%30.21 "HgN/A
9:00 AM66 °FPartly sunny.1 mph94%30.18 "Hg5 mi
8:00 AM64 °FFog.3 mph100%30.18 "Hg2 mi
7:30 AM64 °FFog.1 mph100%30.18 "Hg1 mi
7:00 AM64 °FFog.1 mph94%30.18 "Hg1 mi
6:30 AM64 °FFog.1 mph94%30.18 "Hg1 mi
6:00 AM64 °FFog.No wind94%30.18 "Hg1 mi
Weather by CustomWeather, © 2015

See weather overviewHow to use our weather pages